Location: East Fork Observatory
(32.9757°N, 94.4485°W)
Time: 02:17:30
(UTC-05:00)

ISS - Visible Passes

Search period start: 19 October 2019 00:00
Search period end: 29 October 2019 00:00
Orbit: 411 x 421 km, 51.6° (Epoch: 19 October)

Date Brightness Start Highest point End Pass type
(mag) Time Alt. Az. Time Alt. Az. Time Alt. Az.
21 Oct -0.9 06:45:18 10° S 06:47:51 20° SE 06:50:23 10° E visible
22 Oct -0.4 05:58:51 10° SE 05:59:28 10° SE 06:00:05 10° ESE visible
23 Oct -3.5 06:43:54 10° SW 06:47:14 74° SE 06:50:36 10° NE visible
24 Oct -2.2 05:56:58 20° S 05:58:44 35° SE 06:01:50 10° ENE visible
25 Oct -0.7 05:11:27 15° ESE 05:11:27 15° ESE 05:12:40 10° E visible
25 Oct -2.9 06:44:23 14° W 06:46:49 32° NW 06:49:53 10° NNE visible
26 Oct -3.5 05:58:35 54° N 05:58:35 54° N 06:01:30 10° NE visible
27 Oct -0.6 05:12:34 12° NE 05:12:34 12° NE 05:12:54 10° NE visible
27 Oct -1.7 06:45:30 12° NW 06:46:35 13° NNW 06:48:21 10° N visible
28 Oct -1.5 05:59:18 16° N 05:59:18 16° N 06:00:25 10° NNE visible
